Marianna, FL

4:43 PM CST on December 02, 2016 (GMT -0600)
Marianna Municipal

Weather History for KMAI - July, 2012

Change the Weather History Date:

Sunday, July 29, 2012

  Actual Average Record
Temperature  
Mean Temperature 86 °F 82 °F  
Max Temperature 96 °F 91 °F 100 °F (2010)
Min Temperature 75 °F 73 °F 69 °F (2000)
Degree Days  
Heating Degree Days 0    
Month to date heating degree days  
Since 1 June heating degree days  
Since 1 July heating degree days  
Cooling Degree Days 20    
Month to date cooling degree days  
Year to date cooling degree days  
Since 1 June cooling degree days  
Growing Degree Days 36 (Base 50)    
Moisture  
Dew Point 73 °F    
Average Humidity 72    
Maximum Humidity 94    
Minimum Humidity 46    
Precipitation  
Precipitation 0.00 in 0.15 in 1.15 in (2000)
Month to date precipitation 3.11 4.82  
Year to date precipitation 34.29 32.61  
Sea Level Pressure  
Sea Level Pressure 29.98 in    
Wind  
Wind Speed 5 mph (SW)    
Max Wind Speed 17 mph    
Max Gust Speed -    
Visibility 10 miles    
Events Thunderstorm    
T = Trace of Precipitation, MM = Missing Value Source: NWS Daily Summary

Daily Weather History Graph

Daily Weather History Graph

Search for Another Location

Airport or City:

Trip Planner

Search our weather history database for the weather conditions in past years. The results will help you decide how hot, cold, wet, or windy it might be!

Date:

Astronomy

Jul. 29, 2012 Rise Set
Actual Time 5:56 AM CDT 7:37 PM CDT
Civil Twilight 5:30 AM CDT 8:03 PM CDT
Nautical Twilight 4:58 AM CDT 8:35 PM CDT
Astronomical Twilight 4:25 AM CDT 9:08 PM CDT
Moon 4:38 PM CDT (7/29) 2:13 AM CDT (7/29)
Length of Visible Light 14h 33m
Length of Day
13h 40m
Waxing Gibbous, 85% of the Moon is Illuminated
Jul 29
Waxing Gibbous
Aug 1
Full
Aug 9
Last Quarter
Aug 17
New
Aug 24
First Quarter

Hourly Weather History & Observations

Time (CDT) Temp. Heat Index Dew Point Humidity Pressure Visibility Wind Dir Wind Speed Gust Speed Precip Events Conditions
12:53 AM 75.9 °F - 73.9 °F 94% 30.01 in 10.0 mi Calm Calm - N/A   Clear
1:53 AM 75.9 °F - 73.9 °F 94% 30.00 in 10.0 mi South 4.6 mph - N/A   Clear
2:53 AM 75.9 °F - 73.0 °F 91% 29.99 in 10.0 mi South 5.8 mph - N/A   Clear
3:53 AM 75.0 °F - 73.0 °F 94% 29.99 in 10.0 mi Calm Calm - N/A   Clear
4:53 AM 75.0 °F - 73.0 °F 94% 30.00 in 9.0 mi SW 3.5 mph - N/A   Scattered Clouds
5:53 AM 75.9 °F - 73.0 °F 91% 30.01 in 9.0 mi West 3.5 mph - N/A   Mostly Cloudy
6:53 AM 77.0 °F - 73.9 °F 90% 30.02 in 8.0 mi West 4.6 mph - N/A   Partly Cloudy
7:53 AM 79.0 °F - 73.9 °F 84% 30.03 in 10.0 mi West 5.8 mph - N/A   Mostly Cloudy
8:53 AM 84.0 °F 91.9 °F 75.0 °F 74% 30.03 in 10.0 mi West 6.9 mph - N/A   Clear
9:53 AM 87.1 °F 96.3 °F 75.0 °F 67% 30.03 in 10.0 mi Calm Calm - N/A   Clear
10:53 AM 89.1 °F 100.2 °F 75.9 °F 65% 30.04 in 10.0 mi Variable 3.5 mph - N/A   Clear
11:53 AM 91.0 °F 101.6 °F 75.0 °F 59% 30.01 in 10.0 mi Calm Calm - N/A   Partly Cloudy
12:53 PM 91.9 °F 101.3 °F 73.9 °F 55% 30.00 in 10.0 mi SW 6.9 mph - N/A   Mostly Cloudy
1:53 PM 93.0 °F 103.2 °F 73.9 °F 54% 29.97 in 10.0 mi SW 9.2 mph - N/A   Scattered Clouds
2:53 PM 95.0 °F 103.2 °F 72.0 °F 47% 29.94 in 10.0 mi SW 9.2 mph - N/A   Partly Cloudy
3:53 PM 96.1 °F 104.9 °F 72.0 °F 46% 29.93 in 10.0 mi West 10.4 mph - N/A   Clear
4:18 PM 93.2 °F 100.5 °F 71.6 °F 49% 29.94 in 10.0 mi West 10.4 mph - N/A Thunderstorm Scattered Clouds
4:34 PM 91.4 °F 100.1 °F 73.4 °F 55% 29.95 in 10.0 mi WSW 17.3 mph - N/A   Mostly Cloudy
4:42 PM 89.6 °F 98.2 °F 73.4 °F 59% 29.95 in 10.0 mi West 12.7 mph - N/A Thunderstorm Thunderstorm
4:53 PM 88.0 °F 95.6 °F 73.0 °F 61% 29.94 in 10.0 mi WSW 11.5 mph - N/A   Mostly Cloudy
5:02 PM 87.8 °F 93.8 °F 71.6 °F 58% 29.94 in 10.0 mi WSW 6.9 mph - N/A Thunderstorm Scattered Clouds
5:21 PM 86.0 °F 91.8 °F 71.6 °F 62% 29.95 in 10.0 mi WSW 8.1 mph - N/A   Clear
5:53 PM 84.9 °F 90.1 °F 71.1 °F 63% 29.94 in 10.0 mi WSW 6.9 mph - N/A   Clear
6:53 PM 82.9 °F 88.8 °F 73.0 °F 72% 29.98 in 10.0 mi SSW 4.6 mph - N/A   Clear
7:53 PM 82.0 °F 86.7 °F 72.0 °F 71% 29.97 in 10.0 mi Calm Calm - N/A   Partly Cloudy
8:53 PM 81.0 °F 85.2 °F 72.0 °F 74% 29.97 in 10.0 mi South 4.6 mph - N/A   Clear
9:53 PM 80.1 °F 84.2 °F 73.0 °F 79% 29.98 in 10.0 mi Calm Calm - N/A   Clear
10:53 PM 80.1 °F 85.1 °F 75.0 °F 85% 29.97 in 10.0 mi South 6.9 mph - N/A   Clear
11:53 PM 79.0 °F - 75.9 °F 90% 29.96 in 9.0 mi SW 5.8 mph - N/A   Clear